Weather History for Wrangell, AK

Change the Weather History Date:

Tuesday, October 26, 2010

  Actual Average Record
Temperature  
Mean Temperature 43 °F -  
Max Temperature 44 °F 47 °F 61 °F (1974)
Min Temperature 42 °F 35 °F 22 °F (1969)
Degree Days  
Heating Degree Days 22    
Moisture  
Dew Point 40 °F    
Average Humidity 87    
Maximum Humidity 93    
Minimum Humidity 81    
Precipitation  
Precipitation 0.00 in - - ()
Sea Level Pressure  
Sea Level Pressure 29.75 in    
Wind  
Wind Speed 2 mph (SW)    
Max Wind Speed 7 mph    
Max Gust Speed -    
Visibility 10 miles    
Events      
Averages and records for this station are not official NWS values.
T = Trace of Precipitation, MM = Missing Value Source: NWS Daily Summary

Daily Weather History Graph

Daily Weather History Graph

Search for Another Location

Airport:

Trip Planner

Search our weather history database for the weather conditions in past years. The results will help you decide how hot, cold, wet, or windy it might be!

Date:

Astronomy

Oct. 26, 2010 Rise Set
Actual Time 7:45 AM AKDT 5:20 PM AKDT
Civil Twilight 7:06 AM AKDT 5:59 PM AKDT
Nautical Twilight 6:21 AM AKDT 6:43 PM AKDT
Astronomical Twilight 5:38 AM AKDT 7:27 PM AKDT
Moon 6:57 PM AKDT (10/26) 12:25 PM AKDT (10/26)
Length of Visible Light 10h 53m
Length of Day
9h 34m
Waning Gibbous, 86% of the Moon is Illuminated
Oct 26
Waning Gibbous
Oct 30
Last Quarter
Nov 5
New
Nov 13
First Quarter
Nov 21
Full

Hourly Weather History & Observations

Time (AKDT) Temp. Windchill Dew Point Humidity Pressure Visibility Wind Dir Wind Speed Gust Speed Precip Events Conditions
12:16 AM 44.6 °F - 39.2 °F 81% 29.58 in 10.0 mi Calm Calm - N/A   Overcast
12:36 AM 42.8 °F - 39.2 °F 87% 29.59 in 10.0 mi Calm Calm - N/A   Overcast
12:56 AM 42.8 °F - 39.2 °F 87% 29.59 in 10.0 mi Calm Calm - N/A   Overcast
1:16 AM 42.8 °F - 39.2 °F 87% 29.60 in 10.0 mi Calm Calm - N/A   Overcast
1:36 AM 42.8 °F - 39.2 °F 87% 29.61 in 10.0 mi Calm Calm - N/A   Overcast
1:56 AM 42.8 °F - 39.2 °F 87% 29.61 in 10.0 mi Calm Calm - N/A   Overcast
2:16 AM 42.8 °F - 39.2 °F 87% 29.62 in 10.0 mi Calm Calm - N/A   Overcast
2:36 AM 42.8 °F - 39.2 °F 87% 29.63 in 10.0 mi Calm Calm - N/A   Overcast
2:56 AM 42.8 °F - 39.2 °F 87% 29.63 in 10.0 mi Calm Calm - N/A   Overcast
3:16 AM 42.8 °F - 39.2 °F 87% 29.64 in 10.0 mi Calm Calm - N/A   Overcast
3:36 AM 42.8 °F 40.1 °F 39.2 °F 87% 29.64 in 10.0 mi SE 4.6 mph - N/A   Overcast
3:56 AM 42.8 °F 40.1 °F 39.2 °F 87% 29.65 in 10.0 mi SSE 4.6 mph - N/A   Overcast
4:16 AM 42.8 °F 41.1 °F 39.2 °F 87% 29.65 in 10.0 mi SE 3.5 mph - N/A   Overcast
4:36 AM 42.8 °F 41.1 °F 39.2 °F 87% 29.66 in 10.0 mi SSE 3.5 mph - N/A   Overcast
4:56 AM 42.8 °F 40.1 °F 41.0 °F 93% 29.66 in 10.0 mi SE 4.6 mph - N/A   Overcast
5:16 AM 42.8 °F 41.1 °F 39.2 °F 87% 29.67 in 10.0 mi SSE 3.5 mph - N/A   Overcast
5:36 AM 42.8 °F - 39.2 °F 87% 29.67 in 10.0 mi Calm Calm - N/A   Overcast
5:56 AM 42.8 °F - 39.2 °F 87% 29.68 in 10.0 mi Calm Calm - N/A   Overcast
6:16 AM 42.8 °F - 39.2 °F 87% 29.68 in 10.0 mi Calm Calm - N/A   Overcast
6:36 AM 42.8 °F - 39.2 °F 87% 29.69 in 10.0 mi Calm Calm - N/A   Overcast
6:56 AM 42.8 °F - 39.2 °F 87% 29.70 in 7.0 mi Calm Calm - N/A   Overcast
7:16 AM 42.8 °F - 39.2 °F 87% 29.70 in 7.0 mi Calm Calm - N/A   Overcast
7:36 AM 42.8 °F - 39.2 °F 87% 29.71 in 7.0 mi Calm Calm - N/A   Overcast
7:56 AM 42.8 °F - 39.2 °F 87% 29.71 in 10.0 mi Calm Calm - N/A   Overcast
8:16 AM 42.8 °F - 39.2 °F 87% 29.72 in 10.0 mi Calm Calm - N/A   Overcast
8:36 AM 42.8 °F 41.1 °F 39.2 °F 87% 29.73 in 10.0 mi NW 3.5 mph - N/A   Overcast
8:56 AM 42.8 °F 40.1 °F 39.2 °F 87% 29.73 in 10.0 mi NW 4.6 mph - N/A   Overcast
9:16 AM 42.8 °F 40.1 °F 39.2 °F 87% 29.74 in 10.0 mi NW 4.6 mph - N/A   Overcast
9:36 AM 42.8 °F 40.1 °F 39.2 °F 87% 29.75 in 10.0 mi NW 4.6 mph - N/A   Overcast
9:56 AM 42.8 °F 40.1 °F 39.2 °F 87% 29.75 in 10.0 mi NW 4.6 mph - N/A   Overcast
10:16 AM 42.8 °F 41.1 °F 39.2 °F 87% 29.76 in 10.0 mi NW 3.5 mph - N/A   Overcast
10:36 AM 42.8 °F - 39.2 °F 87% 29.77 in 10.0 mi Calm Calm - N/A   Overcast
10:56 AM 42.8 °F 40.1 °F 39.2 °F 87% 29.77 in 10.0 mi WNW 4.6 mph - N/A   Overcast
11:16 AM 42.8 °F 41.1 °F 39.2 °F 87% 29.78 in 10.0 mi West 3.5 mph - N/A   Overcast
11:36 AM 42.8 °F - 39.2 °F 87% 29.79 in 10.0 mi Calm Calm - N/A   Overcast
11:56 AM 42.8 °F - 41.0 °F 93% 29.79 in 10.0 mi Calm Calm - N/A   Overcast
12:16 PM 44.6 °F 41.4 °F 41.0 °F 87% 29.80 in 10.0 mi WSW 5.8 mph - N/A   Overcast
12:36 PM 44.6 °F 41.4 °F 41.0 °F 87% 29.81 in 10.0 mi WSW 5.8 mph - N/A   Overcast
12:56 PM 42.8 °F 40.1 °F 39.2 °F 87% 29.81 in 10.0 mi WSW 4.6 mph - N/A   Overcast
1:16 PM 44.6 °F 43.1 °F 41.0 °F 87% 29.82 in 10.0 mi WSW 3.5 mph - N/A   Overcast
1:36 PM 44.6 °F 42.2 °F 41.0 °F 87% 29.83 in 10.0 mi WSW 4.6 mph - N/A   Overcast
1:56 PM 44.6 °F 41.4 °F 41.0 °F 87% 29.84 in 10.0 mi SW 5.8 mph - N/A   Overcast
2:16 PM 44.6 °F 43.1 °F 41.0 °F 87% 29.84 in 10.0 mi SW 3.5 mph - N/A   Overcast
2:36 PM 44.6 °F - 41.0 °F 87% 29.85 in 10.0 mi Calm Calm - N/A   Overcast
2:56 PM 44.6 °F - 41.0 °F 87% 29.85 in 10.0 mi Calm Calm - N/A   Overcast
3:16 PM 44.6 °F 43.1 °F 41.0 °F 87% 29.86 in 10.0 mi West 3.5 mph - N/A   Overcast
3:36 PM 44.6 °F - 41.0 °F 87% 29.86 in 10.0 mi Calm Calm - N/A   Overcast
3:56 PM 44.6 °F 40.7 °F 41.0 °F 87% 29.87 in 7.0 mi WSW 6.9 mph - N/A   Overcast
4:16 PM 44.6 °F 42.2 °F 41.0 °F 87% 29.88 in 7.0 mi SW 4.6 mph - N/A   Overcast
4:36 PM 42.8 °F 38.6 °F 39.2 °F 87% 29.88 in 7.0 mi WSW 6.9 mph - N/A   Overcast
4:56 PM 42.8 °F 39.3 °F 39.2 °F 87% 29.89 in 7.0 mi WSW 5.8 mph - N/A   Overcast
5:16 PM 42.8 °F - 39.2 °F 87% 29.90 in 7.0 mi Calm Calm - N/A   Overcast
5:36 PM 42.8 °F - 39.2 °F 87% 29.90 in 7.0 mi Calm Calm - N/A   Overcast
5:56 PM 44.6 °F - 39.2 °F 81% 29.91 in 10.0 mi Calm Calm - N/A   Overcast
6:16 PM 42.8 °F 41.1 °F 39.2 °F 87% 29.91 in 10.0 mi SE 3.5 mph - N/A   Overcast
6:36 PM 42.8 °F 38.6 °F 39.2 °F 87% 29.92 in 10.0 mi ESE 6.9 mph - N/A   Overcast
6:56 PM 42.8 °F 38.6 °F 39.2 °F 87% 29.92 in 10.0 mi SE 6.9 mph - N/A   Overcast
7:16 PM 42.8 °F 38.6 °F 39.2 °F 87% 29.93 in 10.0 mi ESE 6.9 mph - N/A   Overcast
7:36 PM 42.8 °F 38.0 °F 39.2 °F 87% 29.94 in 10.0 mi SSE 8.1 mph - N/A   Overcast
7:56 PM 42.8 °F 38.6 °F 39.2 °F 87% 29.94 in 10.0 mi ESE 6.9 mph - N/A   Overcast
8:16 PM 42.8 °F 37.5 °F 39.2 °F 87% 29.95 in 10.0 mi SE 9.2 mph - N/A   Overcast
8:36 PM 42.8 °F 38.6 °F 39.2 °F 87% 29.95 in 10.0 mi SE 6.9 mph - N/A   Overcast
8:56 PM 42.8 °F 39.3 °F 39.2 °F 87% 29.96 in 10.0 mi SE 5.8 mph - N/A   Overcast
9:16 PM 42.8 °F 38.6 °F 39.2 °F 87% 29.96 in 10.0 mi SE 6.9 mph - N/A   Overcast
9:36 PM 42.8 °F 38.6 °F 39.2 °F 87% 29.97 in 10.0 mi SE 6.9 mph - N/A   Overcast
9:56 PM 42.8 °F 38.6 °F 39.2 °F 87% 29.98 in 10.0 mi SE 6.9 mph - N/A   Overcast
10:16 PM 42.8 °F 40.1 °F 39.2 °F 87% 29.98 in 10.0 mi SE 4.6 mph - N/A   Overcast
10:36 PM 42.8 °F 38.6 °F 39.2 °F 87% 29.99 in 10.0 mi SE 6.9 mph - N/A   Overcast
10:56 PM 42.8 °F 39.3 °F 39.2 °F 87% 30.00 in 10.0 mi SE 5.8 mph - N/A   Overcast
11:16 PM 42.8 °F 40.1 °F 39.2 °F 87% 30.01 in 10.0 mi SE 4.6 mph - N/A   Overcast
11:36 PM 42.8 °F 40.1 °F 39.2 °F 87% 30.01 in 10.0 mi SE 4.6 mph - N/A   Overcast
11:56 PM 42.8 °F 40.1 °F 39.2 °F 87% 30.02 in 10.0 mi SE 4.6 mph - N/A   Overcast